Simultaneous Nadir Overpasses (SNOs) Predictions

Prediction of SNOs between GOES-14 and AQUA Satellite Orbit:

Table of predicted SNOs for the next 14.0 days since TLE Epoch: 7/31/2020
Index Date Time (GOES-14) GOES-14 Lat,Lon AQUA Lat,Lon Distance(km) Time Diff (sec)
1 08/01/2020 20:32:57 0.38,-104.56 0.49,-104.05 57.90 80
2 08/03/2020 20:20:46 0.38,-104.57 1.14,-101.10 395.42 80
3 08/04/2020 08:42:01 -0.41,-104.39 -0.00,-106.24 210.57 80
4 08/06/2020 08:27:10 -0.40,-104.41 -0.66,-103.29 127.28 80
5 08/06/2020 20:48:35 0.42,-104.58 -0.39,-108.49 444.60 80
6 08/08/2020 08:14:58 -0.40,-104.42 -1.25,-100.33 465.38 80
7 08/08/2020 20:36:23 0.42,-104.60 0.20,-105.53 106.16 80
8 08/10/2020 20:26:52 0.42,-104.62 0.86,-102.58 232.15 80
9 08/11/2020 08:48:07 -0.44,-104.47 0.27,-107.73 371.49 80
10 08/13/2020 08:35:56 -0.44,-104.48 -0.39,-104.78 33.71 80
